Location: Cedar Springs
(43.2230°N, 85.5510°W)
Time: 03:55:07
(UTC-04:00)

Cosmos 2278 Rocket - Visible Passes

Search period start: 26 April 2017 00:00
Search period end: 06 May 2017 00:00
Orbit: 840 x 846 km, 71.0° (Epoch: 24 April)

Date Brightness Start Highest point End Pass type
(mag) Time Alt. Az. Time Alt. Az. Time Alt. Az.
26 Apr 2.6 00:23:03 10° NNW 00:27:48 59° WNW 00:27:48 59° WNW visible
26 Apr 3.9 22:25:21 10° N 22:29:28 20° NE 22:31:49 16° E visible
27 Apr 2.3 00:08:30 10° NNW 00:13:40 69° WNW 00:13:40 69° WNW visible
27 Apr 3.9 22:10:52 10° N 22:14:54 19° NE 22:17:43 14° E visible
27 Apr 2.1 23:53:58 10° NNW 23:59:34 76° WSW 23:59:34 76° WSW visible
28 Apr 3.9 21:56:23 10° N 22:00:19 19° NE 22:03:38 12° E visible
28 Apr 2.0 23:39:24 10° NNW 23:45:06 80° WSW 23:45:29 75° SSW visible
29 Apr 4.7 01:27:13 10° W 01:27:20 10° W 01:27:20 10° W visible
29 Apr 4.0 21:41:55 10° N 21:45:44 18° NE 21:49:33 10° E visible
29 Apr 2.1 23:24:52 10° NNW 23:30:34 83° WSW 23:31:26 65° S visible
30 Apr 4.6 01:12:10 10° W 01:13:17 11° W 01:13:17 11° W visible
30 Apr 4.0 21:27:26 10° N 21:31:10 18° NE 21:34:52 10° E visible
30 Apr 2.1 23:10:20 10° NNW 23:16:01 86° WSW 23:17:25 53° SSE visible
01 May 4.5 00:57:17 10° WNW 00:59:10 12° W 00:59:16 12° W visible
01 May 4.0 21:12:57 10° N 21:16:35 17° NE 21:20:11 10° E visible
01 May 2.1 22:55:47 10° NNW 23:01:29 90° SW 23:03:25 43° SSE visible
02 May 4.5 00:42:28 10° WNW 00:44:40 12° W 00:45:17 12° WSW visible
02 May 2.1 22:41:14 10° NNW 22:46:56 87° ENE 22:49:29 35° SSE visible
03 May 4.4 00:27:42 10° WNW 00:30:09 13° W 00:31:21 12° WSW visible
03 May 2.1 22:26:42 10° NNW 22:32:24 84° ENE 22:35:34 27° SSE visible
04 May 4.4 00:12:58 10° WNW 00:15:39 14° W 00:17:26 12° WSW visible
04 May 2.2 22:12:10 10° NNW 22:17:52 81° ENE 22:21:42 21° SSE visible
04 May 4.4 23:58:14 10° WNW 00:01:09 14° W 00:03:35 11° SW visible
05 May 2.2 21:57:37 10° NNW 22:03:18 78° ENE 22:07:53 16° SSE visible
05 May 4.5 23:43:32 10° WNW 23:46:38 15° W 23:49:44 10° SW visible
